Overview Statistics Trail Chart Weather Telemetry Raw packets
 

This is the latest recevied weather packets stored in our database for station/object KD2FKI. If no packets are shown the sender has not sent any weather packets the latest 10 day(s).

<< 39 40 41 42 43 44 45 >>
Time Temp. Humidity Pressure Rain* Wind** Luminosity Snow
1777596650 11.67° C 62% - 0 mm - - -
1777596036 12.22° C 60% - 0 mm - - -
1777595444 12.78° C 58% - 0 mm - - -
1777594836 12.78° C 57% - 0 mm - - -
1777594241 13.33° C 57% - 0 mm - - -
1777593631 13.33° C 57% - 0 mm - - -
1777593043 13.89° C 55% - 0 mm - - -
1777592447 14.44° C 54% - 0 mm - - -
1777591836 15° C 53% - 0 mm - - -
1777591245 15.56° C 54% - 0 mm - - -
1777590633 15.56° C 55% - 0 mm - - -
1777590041 16.11° C 51% - 0 mm - - -
1777589436 16.11° C 52% - 0 mm - - -
1777588857 17.22° C 49% - 0 mm - - -
1777588249 16.67° C 49% - 0 mm - - -
1777587638 17.78° C 47% - 0 mm - - -
1777587081 17.78° C 45% - 0 mm - - -
1777586433 18.33° C 45% - 0 mm - - -
1777585844 19.44° C 44% - 0 mm - - -
1777585231 20° C 44% - 0 mm - - -
1777584641 19.44° C 42% - 0 mm - - -
1777584047 18.89° C 43% - 0 mm - - -
1777583435 19.44° C 43% - 0 mm - - -
1777582843 18.89° C 45% - 0 mm - - -
1777582237 19.44° C 41% - 0 mm - - -

* Rain latest hour (hover to see other rain measurements)
** Current wind speed in m/s (hover to see current wind gust speed)